SCP
0 0 0 0 0 0 0 0 0 0 0 0 0 1 2 2 2 1 1 2 2 3 3 4 3 3 3 2 2 1 1 1 1 1 1 1 1 1 1 1 1 1 1 1 1 1 1 0 0
0 0 0 0 0 0 0 0 0 0 0 0 1 1 2 2 2 2 2 2 2 3 4 4 4 3 3 2 2 2 2 1 1 1 1 1 1 1 1 1 1 1 1 1 1 1 1 1 1
0 0 1 0 0 0 0 0 0 0 0 1 1 1 2 2 2 2 2 1 2 3 4 4 4 3 3 2 2 2 2 2 1 1 1 1 1 1 1 1 1 1 1 1 1 1 1 1 1
0 1 1 0 0 0 0 0 0 0 0 1 1 2 2 1 2 2 2 2 2 3 4 4 4 3 3 3 2 2 2 2 2 1 1 1 1 2 1 1 1 1 1 1 1 1 1 1 1
1 1 1 0 0 0 0 0 0 0 1 1 1 1 1 1 2 2 2 2 2 2 3 4 3 3 3 3 2 2 2 2 2 2 1 1 2 2 2 2 1 1 1 1 1 1 1 1 1
1 1 0 0 0 0 0 0 0 0 1 1 1 1 1 2 3 3 3 2 2 2 3 3 3 3 3 2 2 2 2 2 2 2 2 2 2 2 2 2 2 1 1 1 1 1 1 1 1
1 1 0 0 0 0 0 0 0 0 0 1 1 1 2 3 4 4 4 3 3 3 3 3 3 3 2 2 2 1 1 1 1 1 1 1 1 2 2 2 2 1 1 1 1 1 1 1 1
1 0 0 0 0 0 0 0 0 0 0 0 0 1 2 4 4 5 5 4 4 3 3 3 3 2 2 2 1 1 1 1 1 1 1 1 1 1 1 1 1 1 1 1 1 1 1 1 1
0 0 0 0 0 0 0 0 0 0 0 0 0 1 2 4 5 5 5 5 4 3 3 3 3 2 2 2 1 1 1 1 1 1 1 1 1 1 1 1 1 1 1 1 1 1 1 1 1
0 0 0 0 0 0 0 0 0 0 0 0 0 1 3 4 5 5 4 4 4 3 3 3 3 3 3 2 2 1 1 1 1 1 1 1 1 1 1 1 1 1 1 1 1 1 1 1 1
0 0 0 0 0 0 0 0 0 0 0 0 0 1 3 4 5 4 4 3 3 4 4 4 4 3 3 3 2 2 2 2 1 1 1 1 1 1 1 1 1 1 1 1 1 1 1 1 1
0 0 0 0 0 0 0 0 0 0 0 0 0 1 2 3 4 4 3 3 3 4 4 5 4 4 4 3 3 3 2 2 2 2 2 2 2 2 2 2 2 2 2 2 2 2 2 1 1
0 0 0 0 0 0 0 0 0 0 0 0 0 0 1 2 2 3 3 3 3 3 3 4 4 4 3 3 3 3 2 2 2 2 2 2 2 2 2 2 2 2 2 2 2 2 2 2 2
0 0 0 0 0 0 0 0 0 0 0 0 0 0 0 1 1 2 2 2 2 2 2 2 2 2 2 2 2 2 2 1 1 1 1 1 2 2 2 2 2 2 2 2 2 2 2 2 2
0 0 0 0 0 0 0 0 0 0 0 0 0 0 0 0 1 1 1 1 1 1 1 1 1 1 1 1 1 1 1 1 1 1 1 1 1 2 2 2 2 2 2 2 2 2 2 2 2
0 0 0 0 0 0 0 0 0 0 0 0 0 0 0 0 0 0 0 0 0 0 1 1 1 1 1 0 0 0 0 0 0 0 0 1 1 1 1 1 1 2 2 2 2 2 2 2 2
0 0 0 0 0 0 0 0 0 0 0 0 0 0 0 0 0 0 0 0 0 0 0 0 1 1 0 0 0 0 0 0 0 0 1 1 1 1 1 1 1 1 1 2 2 2 2 2 2
0 0 0 0 0 0 0 0 0 0 0 0 0 0 0 0 0 0 0 0 0 0 0 0 0 1 0 0 0 0 0 0 0 0 1 1 1 1 0 0 0 1 1 1 2 2 2 1 1
0 0 0 0 0 0 0 0 0 0 0 0 0 0 0 0 0 0 0 0 0 0 0 0 0 0 0 0 0 0 0 0 0 0 0 0 0 0 0 0 0 1 1 1 1 1 1 1 1
0 0 0 0 0 0 0 0 0 0 0 0 0 0 0 0 0 0 0 0 0 0 0 0 0 0 0 0 0 0 0 0 0 0 0 0 0 0 0 0 0 1 1 1 1 1 1 1 1
0 0 0 0 0 0 0 0 0 0 0 0 0 0 0 0 0 0 0 0 0 0 0 0 0 0 0 0 0 0 0 0 0 0 0 0 0 0 0 0 0 0 1 1 1 1 1 0 0
0 0 0 0 0 0 0 0 0 0 0 0 0 0 0 0 0 0 0 0 0 0 0 0 0 0 0 0 0 0 0 0 0 0 0 0 0 0 0 0 0 0 0 0 0 0 0 0 0
0 0 0 0 0 0 0 0 0 0 0 0 0 0 0 0 0 0 0 0 0 0 0 0 0 0 0 0 0 0 0 0 0 0 0 0 0 0 0 0 0 0 0 0 0 0 0 0 0
0 0 0 0 0 0 0 0 0 0 0 0 0 0 0 0 0 0 0 0 0 0 0 0 0 0 0 0 0 0 0 0 0 0 0 0 0 0 0 0 0 0 0 0 0 0 0 0 0
0 0 0 0 0 0 0 0 0 0 0 0 0 0 0 0 0 0 0 0 0 0 0 0 0 0 0 0 0 0 0 0 0 0 0 0 0 0 0 0 0 0 0 0 0 0 0 0 0
0 0 0 0 0 0 0 0 0 0 0 0 0 0 0 0 0 0 0 0 0 0 0 0 0 0 0 0 0 0 0 0 0 0 0 0 0 0 0 0 0 0 0 0 0 0 0 0 0
0 0 0 0 0 0 0 0 0 0 0 0 0 0 0 0 0 0 0 0 0 0 0 0 0 0 0 0 0 0 0 0 0 0 0 0 0 0 0 0 0 0 0 0 0 0 0 0 0
0 0 0 0 0 0 0 0 0 0 0 0 0 0 0 0 0 0 0 0 0 0 0 0 0 0 0 0 0 0 0 0 0 0 0 0 0 0 0 0 0 0 0 0 0 0 0 0 0
0 0 0 0 0 0 0 0 0 0 0 0 0 0 0 0 0 0 0 0 0 0 0 0 0 0 0 0 0 0 0 0 0 0 0 0 0 0 0 0 0 0 0 0 0 0 0 0 0
0 0 0 0 0 0 0 0 0 0 0 0 0 0 0 0 0 0 0 0 0 0 0 0 0 0 0 0 0 0 0 0 0 0 0 0 0 0 0 0 0 0 0 0 0 0 0 0 0
Wind_Speed
1 2 3 4 6 6 10 6 4 6 5 2 2 3 3 2 1 5 6 4 3 4 5 6 5 6 6 6 5 5 5 5 4 5 5 4 5 5 6 6 5 5 5 6 6 6 6 7 7
1 3 4 5 7 9 8 8 8 5 4 5 3 3 4 4 4 6 5 4 3 4 4 5 6 5 5 5 5 5 4 4 3 4 3 3 4 4 4 5 5 5 5 5 5 6 6 6 7
3 2 4 5 8 9 6 6 7 5 5 4 4 2 2 5 4 4 4 3 4 5 4 6 5 5 5 4 4 4 3 3 3 2 2 2 2 3 3 3 4 4 4 4 5 5 6 6 7
4 4 3 6 10 6 2 4 6 8 5 3 4 6 4 4 3 4 4 4 5 5 5 6 5 5 5 4 4 3 2 2 1 1 1 1 1 1 1 2 3 3 4 5 5 5 6 7 7
3 5 7 7 9 5 2 3 5 7 6 5 5 5 6 4 4 4 4 5 5 5 5 6 6 5 5 4 3 3 2 1 1 0 1 1 1 1 1 1 2 3 4 5 6 6 6 7 7
4 5 7 10 9 5 4 3 5 6 5 5 5 6 6 5 4 4 4 4 5 5 4 5 6 6 5 4 4 3 2 2 2 1 2 1 1 2 1 1 2 2 4 5 6 6 7 8 8
4 5 6 8 8 7 4 3 5 6 6 4 3 5 6 5 3 3 4 4 5 5 4 4 4 4 5 5 4 4 3 3 2 2 2 2 3 3 3 3 3 3 3 4 5 6 7 8 8
2 3 5 7 8 6 5 3 2 3 4 3 2 4 5 5 3 3 4 4 4 4 4 3 3 3 3 2 4 4 3 3 3 3 3 3 3 4 4 4 3 3 4 4 5 6 6 7 7
3 4 6 6 7 6 5 5 3 1 4 3 1 2 4 6 4 4 3 3 4 4 4 4 3 3 3 2 2 2 2 2 3 2 2 4 4 5 4 4 3 4 4 5 5 6 7 6 7
3 5 4 1 1 4 5 4 4 5 5 3 4 4 5 5 4 4 3 2 3 3 4 4 4 4 3 2 2 2 2 2 2 2 3 3 4 3 4 4 4 5 5 6 7 7 7 8 7
2 3 3 2 2 3 4 4 2 5 4 3 4 5 5 5 4 3 2 2 2 3 4 4 4 4 4 3 2 2 2 2 2 3 3 3 3 3 4 3 4 5 6 6 6 7 6 7 6
3 2 2 2 1 1 3 3 2 2 1 2 3 4 5 4 3 2 1 1 2 3 4 4 5 4 4 3 2 2 2 2 2 3 4 3 2 3 3 3 4 4 4 5 5 5 6 7 8
4 4 2 2 3 2 3 3 2 2 2 3 4 4 4 3 2 1 1 1 2 2 4 5 4 4 4 3 3 3 3 3 3 3 3 4 3 4 4 4 4 4 4 5 5 6 7 7 8
5 5 3 2 2 1 3 2 2 2 3 4 4 4 3 3 2 1 0 1 2 3 4 4 4 4 4 3 3 3 3 3 3 3 4 4 4 4 4 4 4 4 4 5 6 6 6 6 6
6 6 4 1 1 1 2 2 4 3 4 5 4 3 3 2 1 1 0 1 2 3 4 4 4 4 4 4 4 3 3 3 3 3 4 4 4 4 4 4 4 4 4 6 5 7 6 6 6
4 5 3 2 0 1 4 4 4 4 5 5 4 3 3 2 1 0 1 1 2 3 4 4 4 4 4 4 4 3 3 3 3 3 3 4 5 5 4 4 4 4 4 4 5 5 5 6 6
4 4 3 2 1 1 4 4 4 4 4 5 5 4 4 3 2 1 1 1 2 3 3 4 4 4 4 4 3 3 3 3 3 3 3 4 5 5 4 4 4 4 4 4 5 5 5 5 6
5 4 3 2 1 2 5 5 4 5 6 6 6 5 5 4 3 1 1 1 1 2 3 3 4 4 4 3 3 2 3 3 3 3 4 5 4 5 4 3 4 4 4 4 4 5 5 5 5
4 4 3 1 1 3 5 7 7 5 7 7 7 6 5 4 3 2 1 1 1 2 3 3 4 4 4 3 3 3 3 3 3 3 5 5 5 5 4 4 4 4 4 5 5 5 5 5 4
4 4 2 1 1 2 4 8 7 6 7 7 7 6 5 5 3 2 2 1 1 2 3 3 4 4 4 3 3 3 4 3 3 3 4 5 5 5 4 4 4 4 4 5 5 5 4 4 4
2 2 2 0 1 1 4 5 5 4 4 4 5 5 5 5 5 4 2 2 2 2 3 3 4 4 4 4 3 2 2 3 3 3 3 4 5 5 5 5 5 4 4 4 5 5 5 5 4
2 1 2 1 2 1 2 4 4 4 5 5 5 5 5 5 5 4 3 2 2 2 2 3 3 4 4 4 3 4 4 4 4 4 4 5 5 5 5 5 5 5 4 4 5 5 5 5 5
2 1 1 1 1 2 3 4 4 3 6 6 5 5 5 4 4 4 3 3 2 2 2 2 3 3 4 4 4 4 4 4 4 4 5 5 4 5 5 5 4 5 4 5 5 5 5 5 5
2 2 2 1 2 4 3 5 5 4 5 4 4 4 4 4 4 4 3 2 2 2 2 2 3 3 4 4 4 4 4 4 5 5 5 4 4 4 5 5 4 4 4 5 5 5 5 5 6
2 2 1 2 3 3 2 6 7 2 3 4 4 4 4 4 4 4 4 3 3 2 2 2 3 3 3 3 3 4 4 4 5 5 5 5 4 4 5 5 5 4 4 5 5 5 5 5 6
1 2 2 2 3 1 4 7 4 0 2 3 4 4 4 4 4 4 4 4 4 3 3 3 3 3 3 3 3 3 4 3 3 4 5 5 4 4 5 5 5 5 5 5 5 4 5 4 5
2 2 1 1 1 4 5 5 6 3 3 3 3 4 4 4 4 4 4 4 4 4 3 3 3 3 3 3 3 4 4 4 4 5 5 4 4 4 5 5 5 5 5 5 5 4 4 5 5
2 2 2 3 3 5 4 5 4 4 4 3 3 3 3 3 4 4 4 4 4 4 3 3 3 3 3 3 3 3 4 4 5 5 5 5 5 5 6 6 5 5 5 4 4 4 4 5 5
4 3 3 2 3 4 5 3 1 3 3 3 4 3 3 3 4 4 4 4 4 4 4 3 3 3 3 3 3 4 4 4 5 4 5 5 5 6 6 6 5 5 5 4 4 4 5 5 6
4 4 5 4 3 4 5 5 2 2 3 4 5 4 4 4 5 5 4 4 4 4 4 4 3 3 3 3 3 4 4 4 4 5 5 5 5 5 6 6 5 5 5 5 5 5 5 6 6
Wind_Direction
278 217 208 204 201 214 221 201 194 173 176 162 150 177 171 132 90 94 89 82 85 106 108 111 90 91 92 89 87 88 91 101 119 131 139 145 155 159 160 157 153 149 150 153 152 149 145 142 139
239 197 197 207 219 211 209 196 188 178 143 139 137 155 139 104 66 90 103 70 86 98 103 97 85 89 94 95 91 86 84 93 112 122 132 148 153 160 167 169 166 157 151 154 156 157 149 147 147
184 221 204 199 220 222 192 178 179 151 145 161 142 110 92 104 99 95 77 88 105 98 96 90 81 84 86 88 90 93 92 89 95 113 119 130 147 166 172 175 172 170 163 161 161 163 160 157 159
193 185 200 217 212 219 209 150 157 157 160 161 155 128 104 62 63 78 90 108 105 94 88 85 69 80 78 75 75 80 87 90 98 101 129 143 148 150 164 177 176 179 179 179 176 175 174 174 173
216 201 192 206 211 193 178 148 166 170 161 157 165 135 118 89 79 91 101 104 99 88 78 82 65 68 68 69 65 59 51 37 24 308 260 218 198 195 212 180 187 194 192 193 195 191 187 185 186
190 209 205 202 192 179 174 171 176 169 149 148 161 142 117 107 99 92 99 101 94 83 72 76 65 59 55 53 51 45 32 12 345 310 289 280 269 246 239 229 212 210 210 207 205 204 197 193 196
213 204 211 198 183 181 168 176 186 169 158 143 161 148 131 127 91 92 97 92 83 74 65 64 63 63 58 44 35 28 17 358 344 322 304 300 284 263 244 234 229 226 225 222 216 213 207 203 203
250 197 186 192 188 179 156 161 163 183 133 106 192 169 143 132 118 111 101 89 74 63 53 47 43 36 34 37 41 21 5 347 336 321 313 298 269 249 239 233 227 238 236 231 227 223 218 213 208
236 212 197 189 187 159 155 161 123 85 129 127 104 58 91 119 135 128 110 89 69 52 38 29 24 20 11 359 16 360 355 347 310 280 282 266 251 245 234 242 247 243 239 236 233 229 223 218 210
219 209 196 168 162 150 156 159 147 164 157 152 143 112 119 136 141 135 117 84 54 34 23 18 12 5 355 345 339 327 319 316 298 296 279 263 263 259 261 241 234 238 237 232 231 232 221 222 217
181 187 155 135 99 146 152 144 162 178 182 184 169 146 144 150 147 139 110 72 42 22 14 8 1 353 347 342 330 322 315 311 302 303 294 281 272 262 255 252 229 230 231 233 224 224 227 228 227
135 98 136 142 120 155 157 149 146 196 144 110 142 146 153 158 154 147 106 51 26 15 5 1 357 348 344 337 328 314 310 307 307 303 297 284 273 266 263 255 252 248 241 240 239 238 235 236 232
137 125 85 89 105 117 133 147 140 170 143 128 132 147 161 164 164 148 74 33 9 1 354 354 353 349 344 339 327 321 314 308 307 306 298 291 277 270 266 262 259 256 253 244 242 242 242 241 238
126 118 114 89 123 130 146 162 188 185 151 150 150 160 167 169 184 172 106 10 359 351 349 347 348 347 339 332 327 323 320 315 309 307 303 296 285 279 275 268 264 264 261 260 254 249 247 245 243
133 131 119 87 144 157 190 205 205 179 167 168 172 175 172 166 173 182 42 352 351 351 350 348 345 346 341 336 331 325 320 314 310 310 306 301 292 282 276 274 269 269 269 263 259 254 251 249 247
149 167 161 107 271 196 224 219 160 160 179 192 195 196 192 181 186 217 355 345 350 351 353 352 349 347 345 339 331 325 322 318 313 312 307 304 298 288 281 275 272 274 270 266 262 259 252 249 248
171 181 173 142 133 207 220 233 179 177 203 220 220 217 217 218 225 248 308 335 355 358 356 354 352 348 345 338 328 324 322 322 320 318 319 317 309 302 293 284 281 277 269 265 266 263 261 259 254
167 164 165 169 103 221 225 237 224 219 226 234 235 230 229 234 240 247 268 320 358 357 352 348 347 347 343 337 330 329 328 328 326 325 327 323 318 314 305 290 287 282 271 267 265 266 262 266 265
136 148 150 129 11 264 241 252 253 242 230 232 234 232 234 238 243 241 235 244 325 343 345 345 344 348 348 341 335 329 328 326 325 327 326 322 319 315 304 294 290 283 272 269 268 269 266 265 272
134 143 129 81 31 290 277 271 261 245 240 240 238 235 234 235 225 217 221 237 289 322 338 338 339 338 340 332 323 311 313 314 318 318 322 322 319 313 303 296 288 281 274 269 268 268 268 266 257
116 163 154 113 333 227 291 267 222 210 224 234 235 238 240 238 235 225 223 247 279 311 324 331 333 329 331 328 316 309 302 293 295 310 320 327 322 315 307 301 293 288 279 273 271 265 260 262 260
135 133 161 198 258 263 304 276 230 216 229 226 224 224 232 232 233 230 228 239 266 288 305 316 322 325 329 326 316 312 305 306 310 315 314 321 324 321 312 303 297 291 283 275 271 266 263 258 256
98 116 164 213 252 266 216 251 251 196 232 229 221 223 229 228 228 228 228 236 252 271 285 301 313 320 328 328 321 312 308 308 309 307 307 316 322 324 320 310 301 293 286 281 275 269 261 255 251
137 142 131 160 229 247 214 238 255 205 225 224 216 221 225 223 222 223 223 229 236 255 270 286 300 313 324 326 324 316 310 308 307 308 309 312 313 318 323 319 308 299 292 284 279 271 265 259 255
194 213 203 206 220 236 157 240 255 244 224 234 241 241 236 223 218 217 220 227 233 244 262 278 288 302 316 321 323 318 312 307 304 306 308 308 308 311 318 316 310 303 296 287 280 272 267 262 258
185 254 271 264 259 265 199 242 256 228 256 257 256 257 247 231 224 227 231 236 239 245 255 268 281 291 303 311 316 315 313 306 304 305 304 305 303 306 310 308 303 299 292 285 276 269 265 262 259
179 182 347 301 298 268 244 259 272 204 223 230 236 236 235 229 231 238 240 239 241 243 251 263 273 281 289 299 305 306 309 303 304 304 302 300 298 301 305 304 303 300 295 286 280 268 266 265 262
317 156 189 220 257 267 263 252 244 203 213 227 237 240 241 241 245 249 246 243 243 244 247 251 259 271 283 295 301 302 304 303 303 303 303 303 303 300 299 300 298 296 293 288 280 273 265 264 264
172 187 216 231 269 275 282 264 180 220 233 255 264 266 262 263 257 252 252 251 249 247 243 242 249 263 275 285 294 297 302 303 304 301 301 302 302 300 299 299 296 295 293 285 277 275 272 266 264
241 224 207 235 233 243 276 276 103 234 269 275 278 276 272 268 260 255 253 251 246 241 238 239 242 250 262 273 280 289 296 300 301 303 305 304 301 300 302 300 294 293 290 285 278 277 273 266 264